Regional Weather Roundup
Issued by NWS Sioux Falls, SD

Home | Current Version | Previous Version | Graphics & Text | Print | Product List | Glossary Off
Versions: 1 2 3 4 5 6 7 8 9 10 11 12 13 14 15 16 17 18 19 20 21 22 23 24 25 26 27 28 29 30 31 32 33 34 35 36 37 38 39 40 41 42 43 44 45 46 47 48 49 50

000
ASUS43 KFSD 250510
RWRFSD

WEATHER ROUNDUP FOR SE SOUTH DAKOTA/SW MINNESOTA/NW IOWA
NATIONAL WEATHER SERVICE SIOUX FALLS SD
1200 AM CDT WED MAY 25 2016

NOTE: "FAIR" INDICATES FEW OR NO CLOUDS BELOW 12,000 FEET WITH NO
SIGNIFICANT WEATHER AND OR OBSTRUCTIONS TO VISIBILITY.


SDZ038>040-050-052>070-250600-
SOUTHEAST SOUTH DAKOTA

CITY           SKY/WX    TMP DP  RH WIND       PRES   REMARKS
BROOKINGS      CLOUDY    66  55  67 SE7       29.85S
CHAMBERLAIN    MOCLDY    69  64  83 SE14G20   29.75F
HURON          CLOUDY    68  53  58 SE9       29.79F
MADISON        FAIR      68  63  83 S7        29.85F
MITCHELL       CLOUDY    70  62  76 SE10      29.79F
SIOUX FALLS    PTCLDY    71  61  70 S10       29.86R
WINNER         FAIR      69  56  62 S9        29.77R
YANKTON        CLOUDY    70  61  73 E6        29.82R
$$

MNZ071-072-080-081-089-090-097-098-250600-
SOUTHWEST MINNESOTA

CITY           SKY/WX    TMP DP  RH WIND       PRES   REMARKS
FAIRMONT       CLEAR     66  46  48 SE3       29.89S
JACKSON        CLEAR     68  59  73 S8        29.90S
LUVERNE        CLEAR     68  59  73 S8        29.87S
MARSHALL       CLOUDY    68  54  60 SE10      29.87
MONTEVIDEO     CLOUDY    68  52  56 SE10      29.88R
PIPESTONE      CLOUDY    70  57  64 S8        29.87S
REDWOOD FALLS  CLOUDY    69  53  56 SE8       29.87R
TRACY          CLOUDY    70  55  60 S8        29.88R
WINDOM         CLOUDY    68  61  77 CALM      29.89S
WORTHINGTON    CLEAR     69  62  78 S8        29.88F
$$

IAZ001>003-012>014-020>022-031-032-NEZ013-014-SDZ071-250600-
NORTHWEST IOWA

CITY           SKY/WX    TMP DP  RH WIND       PRES   REMARKS
CHEROKEE       CLOUDY    67  65  90 SE5       29.87S
DENISON        CLOUDY    68  61  77 SE7       29.86S
ESTHERVILLE    CLEAR     64  59  83 S7        29.88F
LE MARS        CLOUDY    68  64  88 SE7       29.86S
ORANGE CITY    CLOUDY    70  64  83 SE3       29.87S
SHELDON        CLEAR     68  64  88 SE7       29.86R
SIOUX CITY     CLOUDY    67  62  84 SE8       29.83F
SPENCER        CLEAR     64  60  87 SE7       29.88F
STORM LAKE     CLEAR     66  63  88 SE8       29.89R
$$

ABBREVIATIONS USED IN REMARKS
   TC - TEMPERATURE IN CELSIUS
  WCI - WIND CHILL INDEX
   HX - HEAT INDEX
  VSB - VISIBILITY





USA.gov is the U.S. government's official web portal to all federal, state and local government web resources and services.